Preview of NWS' New Version of Forecast
This preview is not operational and should not be used for support decisions.

Regional Weather Roundup (RWR)

Issued by National Weather Service (NWS)

                            
000
ASUS44 KJAN 222110
RWRMS 

MISSISSIPPI HOURLY WEATHER ROUNDUP
NATIONAL WEATHER SERVICE JACKSON MS
300 PM CST FRI FEB 22 2019

NOTE: "FAIR: INDICATES FEW OR NO CLOUDS BELOW 12,000 FEET WITH NO
SIGNIFICANT WEATHER AND/OR OBSTRUCTIONS TO VISIBILITY.

MSZ001>002-007>008-010>013-018>021-025>028-034>036-222200-
NORTHWEST MISSISSIPPI
  
CITY           SKY/WX    TMP DP  RH WIND       PRES   REMARKS
BATESVILLE     LGT RAIN  57  57 100 VRB3      30.09R                  
CLARKSDALE     CLOUDY   N/A N/A N/A N8        30.10S FOG              
CLEVELAND      RAIN      57  57 100 E13       30.06R                  
GREENWOOD      CLOUDY    60  56  86 E15G21    30.05S                  
GREENVILLE     CLOUDY   N/A N/A N/A E13       30.02F                  
OLIVE BRANCH   RAIN      50  50 100 N7        30.12R FOG              
OXFORD         DRIZZLE   55  55 100 SE9G17    30.11S                  
TUNICA         RAIN      46  45  93 N9        30.13S                  
WINONA         CLOUDY    58  57  98 E5        30.07F                  
$$

MSZ003>006-009-014>017-022>024-029>033-037>039-222200-
NORTHEAST MISSISSIPPI
  
CITY           SKY/WX    TMP DP  RH WIND       PRES   REMARKS
ABERDEEN       CLOUDY    61  61 100 NE7       30.11F                  
COLUMBUS AFB   FAIR      63  59  86 NE7       30.08F                  
CORINTH        DRIZZLE   55  54  94 NE3       30.13F                  
GOLDN TRIANGLE CLOUDY    61  59  94 E7        30.09F                  
STARKVILLE     CLOUDY    61  57  88 E7        30.10S                  
TUPELO         CLOUDY    58  55  90 E10       30.10                   
$$

MSZ040-058-222200-
CENTRAL MISSISSIPPI
  
CITY           SKY/WX    TMP DP  RH WIND       PRES   REMARKS
JACKSON INTL   PTSUNNY   70  61  73 N8        30.00F                  
JACKSON HAWKNS FAIR      71  64  78 E7        30.00F                  
MADISON        CLOUDY    64  64 100 CALM      30.01F                  
MERIDIAN KEY   FAIR      73  63  70 NE13      30.04S                  
MERIDIAN NAS   CLOUDY    62  59  90 E6        30.07S FOG              
RAYMOND        FAIR      77  68  73 VRB5G13   29.98F                  
VICKSBURG VKS  PTCLDY    64  61  88 N8        29.98F                  
$$

MSZ059>079-222200-
SOUTH MISSISSIPPI
  
CITY           SKY/WX    TMP DP  RH WIND       PRES   REMARKS
HATTIESBURG    FAIR      78  67  68 SE10      30.03F                  
LAUREL         CLOUDY    77  65  67 S7        30.03F                  
MCCOMB         PTSUNNY   80  64  58 SE12      29.98F                  
NATCHEZ        LGT RAIN  70  63  78 N9        29.96F                  
PINE BELT      CLOUDY    77  70  79 SE10      30.03F                  
$$

MSZ080>082-222200-
COASTAL MISSISSIPPI
  
CITY           SKY/WX    TMP DP  RH WIND       PRES   REMARKS
BAY ST LOUIS   FOG       70  70 100 SE6       30.05F VSB 1/2          
BILOXI         CLOUDY    70  70 100 SE8       30.05R FOG              
PASCAGOULA     FOG       73  70  90 SE8       30.06R VSB 1            
GULFPORT       CLOUDY    70  68  93 SE10      30.04S FOG              
$$

LAZ007>009-015>016-023>026-222200-
NORTHEAST LOUISIANA
  
CITY           SKY/WX    TMP DP  RH WIND       PRES   REMARKS
BASTROP        CLOUDY    56  55  99 NE6       30.02F FOG              
TALLULAH/VBURG FAIR      63  58  83 N8        29.99F                  
VIDALIA        HVY RAIN  69  66  91 W9        29.96S                  
$$